Location: Andiroba
(19.8650°S, 43.9258°W)
Time: 01:29:27
(UTC+00:00)

Cosmos 2056 Rocket - Pass Details

Date: 15 June 2024
Orbit: 741 x 797 km, 74.0° (Epoch: 24 July)

Event Time Altitude Azimuth Distance (km) Brightness Sun altitude
Exits shadow 07:34:55 33° 174° (S) 1,311 4.5 -25.8°
Maximum altitude 07:37:17 63° 105° (ESE) 877 3.9 -25.2°
Drops below altitude 10° 07:42:35 10° 24° (NNE) 2,351 6.5 -24.1°
Sets 07:45:00 0° 20° (NNE) 3,278 7.3 -23.5°
